| time (UTC) | temp C | wind direction | speed KPH | gust KPH | rain 1hr cm | rain 24hr cm | rain mn cm | humidity % | barometer mb |
| 20260507075555 | 13 | 41 | 0.0 | 1.6 | 0.00 | 0.00 | 0.00 | 73 | 1017.7 |
| 20260507075037 | 13 | 41 | 0.0 | 1.6 | 0.00 | 0.00 | 0.00 | 73 | 1017.8 |
| 20260507074510 | 13 | 43 | 0.0 | 3.2 | 0.00 | 0.00 | 0.00 | 73 | 1017.6 |
| 20260507074030 | 13 | 43 | 0.0 | 3.2 | 0.00 | 0.00 | 0.00 | 74 | 1017.8 |
| 20260507073506 | 13 | 43 | 0.0 | 0.0 | 0.00 | 0.00 | 0.00 | 74 | 1017.7 |
| 20260507073045 | 13 | 43 | 0.0 | 1.6 | 0.00 | 0.00 | 0.00 | 73 | 1017.8 |
| 20260507072559 | 13 | 43 | 0.0 | 3.2 | 0.00 | 0.00 | 0.00 | 73 | 1017.8 |
| 20260507072501 | 13 | 43 | 0.0 | 3.2 | 0.00 | 0.00 | 0.00 | 73 | 1017.8 |
| 20260507072038 | 13 | 43 | 0.0 | 3.2 | 0.00 | 0.00 | 0.00 | 73 | 1017.9 |
| 20260507071521 | 13 | 43 | 0.0 | 1.6 | 0.00 | 0.00 | 0.00 | 73 | 1018.0 |
| 20260507071051 | 13 | 43 | 0.0 | 1.6 | 0.00 | 0.00 | 0.00 | 73 | 1018.0 |
| 20260507070533 | 13 | 43 | 0.0 | 0.0 | 0.00 | 0.00 | 0.00 | 72 | 1018.0 |
| 20260507070018 | 13 | 43 | 0.0 | 1.6 | 0.00 | 0.00 | 0.00 | 72 | 1018.0 |
| 20260507065539 | 13 | 43 | 0.0 | 3.2 | 0.00 | 0.00 | 0.00 | 72 | 1018.1 |
| 20260507065003 | 13 | 43 | 0.0 | 4.8 | 0.00 | 0.00 | 0.00 | 72 | 1018.0 |
| 20260507064546 | 13 | 43 | 1.6 | 4.8 | 0.00 | 0.00 | 0.00 | 71 | 1018.0 |
| 20260507064015 | 13 | 45 | 0.0 | 4.8 | 0.00 | 0.00 | 0.00 | 71 | 1018.1 |
| 20260507063535 | 13 | 46 | 0.0 | 6.4 | 0.00 | 0.00 | 0.00 | 71 | 1018.1 |
| 20260507063016 | 13 | 47 | 1.6 | 6.4 | 0.00 | 0.00 | 0.00 | 71 | 1018.1 |
| 20260507062550 | 13 | 43 | 0.0 | 4.8 | 0.00 | 0.00 | 0.00 | 71 | 1018.1 |
| 20260507062014 | 13 | 43 | 0.0 | 8.0 | 0.00 | 0.00 | 0.00 | 71 | 1018.0 |
| 20260507061546 | 13 | 45 | 1.6 | 8.0 | 0.00 | 0.00 | 0.00 | 71 | 1018.0 |
| 20260507061101 | 14 | 45 | 1.6 | 4.8 | 0.00 | 0.00 | 0.00 | 71 | 1018.0 |
| 20260507061005 | 14 | 41 | 1.6 | 4.8 | 0.00 | 0.00 | 0.00 | 71 | 1018.0 |
| 20260507060542 | 14 | 41 | 0.0 | 4.8 | 0.00 | 0.00 | 0.00 | 71 | 1018.0 |
| 20260507060032 | 14 | 42 | 0.0 | 4.8 | 0.00 | 0.00 | 0.00 | 71 | 1018.0 |
| 20260507055540 | 14 | 42 | 1.6 | 4.8 | 0.00 | 0.00 | 0.00 | 71 | 1018.1 |
| 20260507055019 | 14 | 42 | 0.0 | 4.8 | 0.00 | 0.00 | 0.00 | 70 | 1018.1 |
| 20260507054555 | 14 | 42 | 0.0 | 6.4 | 0.00 | 0.00 | 0.00 | 70 | 1018.1 |
| 20260507054020 | 14 | 34 | 0.0 | 4.8 | 0.00 | 0.00 | 0.00 | 70 | 1018.0 |
| 20260507053550 | 14 | 45 | 0.0 | 3.2 | 0.00 | 0.00 | 0.00 | 70 | 1018.0 |
| 20260507053029 | 14 | 45 | 0.0 | 3.2 | 0.00 | 0.00 | 0.00 | 70 | 1018.0 |
| 20260507052545 | 15 | 45 | 0.0 | 4.8 | 0.00 | 0.00 | 0.00 | 70 | 1018.0 |
| 20260507052028 | 15 | 45 | 0.0 | 4.8 | 0.00 | 0.00 | 0.00 | 69 | 1018.0 |
| 20260507051504 | 15 | 44 | 0.0 | 3.2 | 0.00 | 0.00 | 0.00 | 69 | 1018.0 |
| 20260507051035 | 15 | 44 | 0.0 | 6.4 | 0.00 | 0.00 | 0.00 | 69 | 1018.0 |
| 20260507050511 | 15 | 44 | 0.0 | 6.4 | 0.00 | 0.00 | 0.00 | 69 | 1018.0 |
| 20260507050057 | 15 | 44 | 0.0 | 4.8 | 0.00 | 0.00 | 0.00 | 69 | 1018.1 |
| 20260507045512 | 15 | 44 | 0.0 | 4.8 | 0.00 | 0.00 | 0.00 | 68 | 1018.0 |
| 20260507045032 | 15 | 44 | 0.0 | 4.8 | 0.00 | 0.00 | 0.00 | 68 | 1018.0 |
| 20260507044518 | 15 | 44 | 0.0 | 6.4 | 0.00 | 0.00 | 0.00 | 68 | 1017.9 |
| 20260507044031 | 15 | 45 | 1.6 | 8.0 | 0.00 | 0.00 | 0.00 | 67 | 1017.9 |
| 20260507043517 | 15 | 38 | 3.2 | 8.0 | 0.00 | 0.00 | 0.00 | 67 | 1017.8 |
| 20260507043051 | 15 | 47 | 3.2 | 11.3 | 0.00 | 0.00 | 0.00 | 67 | 1017.8 |
| 20260507042514 | 15 | 64 | 3.2 | 11.3 | 0.00 | 0.00 | 0.00 | 67 | 1017.8 |
| 20260507042047 | 15 | 69 | 3.2 | 6.4 | 0.00 | 0.00 | 0.00 | 66 | 1017.7 |
| 20260507041512 | 16 | 38 | 1.6 | 6.4 | 0.00 | 0.00 | 0.00 | 66 | 1017.6 |
| 20260507041044 | 16 | 60 | 1.6 | 6.4 | 0.00 | 0.00 | 0.00 | 66 | 1017.5 |
| 20260507040520 | 16 | 50 | 1.6 | 9.7 | 0.00 | 0.00 | 0.00 | 65 | 1017.5 |
| 20260507040037 | 16 | 45 | 4.8 | 9.7 | 0.00 | 0.00 | 0.00 | 65 | 1017.5 |
| 20260507035515 | 16 | 47 | 3.2 | 8.0 | 0.00 | 0.00 | 0.00 | 64 | 1017.4 |
| 20260507035036 | 16 | 42 | 1.6 | 8.0 | 0.00 | 0.00 | 0.00 | 64 | 1017.4 |
| 20260507034511 | 16 | 41 | 1.6 | 11.3 | 0.00 | 0.00 | 0.00 | 63 | 1017.3 |
| 20260507034031 | 16 | 56 | 4.8 | 11.3 | 0.00 | 0.00 | 0.00 | 63 | 1017.2 |
| 20260507033512 | 17 | 56 | 4.8 | 9.7 | 0.00 | 0.00 | 0.00 | 63 | 1017.1 |
| 20260507033047 | 17 | 54 | 3.2 | 11.3 | 0.00 | 0.00 | 0.00 | 62 | 1017.1 |
| 20260507032510 | 17 | 16 | 4.8 | 11.3 | 0.00 | 0.00 | 0.00 | 62 | 1017.0 |
| 20260507032043 | 17 | 58 | 3.2 | 12.9 | 0.00 | 0.00 | 0.00 | 62 | 1017.0 |
| 20260507031600 | 17 | 45 | 6.4 | 12.9 | 0.00 | 0.00 | 0.00 | 61 | 1017.0 |
| 20260507031505 | 17 | 45 | 3.2 | 12.9 | 0.00 | 0.00 | 0.00 | 61 | 1016.9 |
| 20260507031043 | 17 | 41 | 4.8 | 11.3 | 0.00 | 0.00 | 0.00 | 61 | 1016.9 |
| 20260507030517 | 17 | 34 | 4.8 | 12.9 | 0.00 | 0.00 | 0.00 | 60 | 1016.8 |
| 20260507030038 | 17 | 45 | 6.4 | 14.5 | 0.00 | 0.00 | 0.00 | 59 | 1016.8 |
| 20260507025512 | 17 | 37 | 4.8 | 14.5 | 0.00 | 0.00 | 0.00 | 59 | 1016.7 |
| 20260507025032 | 18 | 50 | 3.2 | 11.3 | 0.00 | 0.00 | 0.00 | 58 | 1016.7 |
| 20260507024518 | 18 | 58 | 6.4 | 12.9 | 0.00 | 0.00 | 0.00 | 58 | 1016.6 |
| 20260507024100 | 18 | 40 | 6.4 | 12.9 | 0.00 | 0.00 | 0.00 | 57 | 1016.6 |
| 20260507023531 | 18 | 43 | 4.8 | 12.9 | 0.00 | 0.00 | 0.00 | 57 | 1016.5 |
| 20260507023008 | 18 | 65 | 6.4 | 12.9 | 0.00 | 0.00 | 0.00 | 56 | 1016.5 |
| 20260507022540 | 19 | 44 | 6.4 | 12.9 | 0.00 | 0.00 | 0.00 | 56 | 1016.4 |
| 20260507022015 | 19 | 56 | 6.4 | 14.5 | 0.00 | 0.00 | 0.00 | 55 | 1016.4 |
| 20260507021602 | 19 | 59 | 8.0 | 14.5 | 0.00 | 0.00 | 0.00 | 55 | 1016.4 |
| 20260507021016 | 20 | 47 | 6.4 | 14.5 | 0.00 | 0.00 | 0.00 | 54 | 1016.4 |
| 20260507020550 | 20 | 51 | 4.8 | 14.5 | 0.00 | 0.00 | 0.00 | 54 | 1016.3 |
| 20260507020027 | 20 | 29 | 6.4 | 17.7 | 0.00 | 0.00 | 0.00 | 54 | 1016.2 |
| 20260507015545 | 20 | 38 | 8.0 | 17.7 | 0.00 | 0.00 | 0.00 | 53 | 1016.2 |
| 20260507015026 | 20 | 24 | 9.7 | 16.1 | 0.00 | 0.00 | 0.00 | 53 | 1016.1 |
| 20260507014558 | 20 | 50 | 8.0 | 16.1 | 0.00 | 0.00 | 0.00 | 52 | 1016.1 |
| 20260507014040 | 21 | 52 | 8.0 | 14.5 | 0.00 | 0.00 | 0.00 | 52 | 1016.1 |
| 20260507013516 | 21 | 69 | 4.8 | 17.7 | 0.00 | 0.00 | 0.00 | 51 | 1016.0 |
| 20260507013037 | 21 | 56 | 8.0 | 17.7 | 0.00 | 0.00 | 0.00 | 50 | 1016.0 |
| 20260507012517 | 21 | 23 | 8.0 | 17.7 | 0.00 | 0.00 | 0.00 | 50 | 1016.0 |
| 20260507012051 | 21 | 52 | 6.4 | 16.1 | 0.00 | 0.00 | 0.00 | 49 | 1016.0 |
| 20260507011516 | 22 | 42 | 6.4 | 16.1 | 0.00 | 0.00 | 0.00 | 49 | 1016.0 |
| 20260507011043 | 22 | 38 | 6.4 | 16.1 | 0.00 | 0.00 | 0.00 | 48 | 1016.0 |
| 20260507010601 | 22 | 90 | 6.4 | 16.1 | 0.00 | 0.00 | 0.00 | 49 | 1016.0 |
| 20260507010504 | 22 | 49 | 8.0 | 16.1 | 0.00 | 0.00 | 0.00 | 49 | 1015.9 |
| 20260507010043 | 22 | 40 | 6.4 | 19.3 | 0.00 | 0.00 | 0.00 | 48 | 1015.9 |
| 20260507005511 | 22 | 42 | 8.0 | 19.3 | 0.00 | 0.00 | 0.00 | 48 | 1015.8 |
| 20260507005035 | 22 | 56 | 9.7 | 19.3 | 0.00 | 0.00 | 0.00 | 48 | 1015.8 |
| 20260507004508 | 22 | 47 | 6.4 | 16.1 | 0.00 | 0.00 | 0.00 | 47 | 1015.8 |
| 20260507004045 | 22 | 64 | 6.4 | 14.5 | 0.00 | 0.00 | 0.00 | 47 | 1015.8 |
| 20260507003600 | 22 | 23 | 4.8 | 16.1 | 0.00 | 0.00 | 0.00 | 46 | 1015.7 |
| 20260507003502 | 22 | 84 | 4.8 | 16.1 | 0.00 | 0.00 | 0.00 | 46 | 1015.7 |
| 20260507003042 | 22 | 73 | 6.4 | 16.1 | 0.00 | 0.00 | 0.00 | 46 | 1015.8 |
| 20260507002557 | 22 | 52 | 4.8 | 20.9 | 0.00 | 0.00 | 0.00 | 47 | 1015.7 |
| 20260507002501 | 22 | 73 | 4.8 | 20.9 | 0.00 | 0.00 | 0.00 | 47 | 1015.7 |
| 20260507002039 | 22 | 28 | 8.0 | 20.9 | 0.00 | 0.00 | 0.00 | 47 | 1015.6 |
| 20260507001604 | 22 | 47 | 8.0 | 24.1 | 0.00 | 0.00 | 0.00 | 47 | 1015.5 |
| 20260507001035 | 22 | 35 | 9.7 | 24.1 | 0.00 | 0.00 | 0.00 | 47 | 1015.6 |
| 20260507000551 | 22 | 50 | 9.7 | 20.9 | 0.00 | 0.00 | 0.00 | 47 | 1015.4 |
| 20260507000034 | 22 | 42 | 9.7 | 20.9 | 0.00 | 0.00 | 0.00 | 46 | 1015.5 |
| 20260506235508 | 22 | 35 | 6.4 | 17.7 | 0.00 | 0.00 | 0.00 | 46 | 1015.4 |
| 20260506235027 | 23 | 43 | 8.0 | 17.7 | 0.00 | 0.00 | 0.00 | 46 | 1015.4 |
| 20260506234504 | 23 | 45 | 8.0 | 14.5 | 0.00 | 0.00 | 0.00 | 45 | 1015.4 |
| 20260506234025 | 23 | 55 | 8.0 | 20.9 | 0.00 | 0.00 | 0.00 | 45 | 1015.5 |
| 20260506233600 | 23 | 28 | 6.4 | 20.9 | 0.00 | 0.00 | 0.00 | 45 | 1015.4 |
| 20260506233501 | 23 | 47 | 9.7 | 20.9 | 0.00 | 0.00 | 0.00 | 45 | 1015.5 |
| 20260506233037 | 23 | 83 | 8.0 | 17.7 | 0.00 | 0.00 | 0.00 | 45 | 1015.5 |
| 20260506232515 | 23 | 49 | 8.0 | 19.3 | 0.00 | 0.00 | 0.00 | 44 | 1015.5 |
| 20260506232030 | 23 | 42 | 6.4 | 16.1 | 0.00 | 0.00 | 0.00 | 44 | 1015.5 |
| 20260506231506 | 23 | 52 | 9.7 | 19.3 | 0.00 | 0.00 | 0.00 | 44 | 1015.5 |
| 20260506231044 | 23 | 33 | 8.0 | 19.3 | 0.00 | 0.00 | 0.00 | 43 | 1015.6 |
| 20260506230504 | 23 | 50 | 9.7 | 19.3 | 0.00 | 0.00 | 0.00 | 43 | 1015.7 |
| 20260506230039 | 23 | 104 | 3.2 | 14.5 | 0.00 | 0.00 | 0.00 | 44 | 1015.6 |
| 20260506225600 | 23 | 71 | 4.8 | 14.5 | 0.00 | 0.00 | 0.00 | 44 | 1015.7 |
| 20260506225035 | 23 | 80 | 4.8 | 16.1 | 0.00 | 0.00 | 0.00 | 44 | 1015.7 |
| 20260506224516 | 23 | 51 | 4.8 | 16.1 | 0.00 | 0.00 | 0.00 | 43 | 1015.8 |
| 20260506224037 | 23 | 57 | 1.6 | 16.1 | 0.00 | 0.00 | 0.00 | 43 | 1015.9 |
| 20260506223519 | 23 | 52 | 6.4 | 16.1 | 0.00 | 0.00 | 0.00 | 43 | 1015.9 |
| 20260506223100 | 23 | 50 | 6.4 | 16.1 | 0.00 | 0.00 | 0.00 | 43 | 1015.9 |
| 20260506222515 | 23 | 100 | 6.4 | 16.1 | 0.00 | 0.00 | 0.00 | 42 | 1016.0 |
| 20260506222050 | 23 | 40 | 1.6 | 20.9 | 0.00 | 0.00 | 0.00 | 43 | 1016.1 |
| 20260506221526 | 22 | 42 | 6.4 | 20.9 | 0.00 | 0.00 | 0.00 | 42 | 1016.1 |
| 20260506221047 | 22 | 116 | 3.2 | 12.9 | 0.00 | 0.00 | 0.00 | 42 | 1016.2 |
| 20260506220531 | 22 | 51 | 3.2 | 12.9 | 0.00 | 0.00 | 0.00 | 42 | 1016.2 |
| 20260506220002 | 22 | 43 | 4.8 | 16.1 | 0.00 | 0.00 | 0.00 | 43 | 1016.3 |
| 20260506215539 | 22 | 97 | 8.0 | 16.1 | 0.00 | 0.00 | 0.00 | 42 | 1016.4 |
| 20260506215058 | 22 | 135 | 6.4 | 14.5 | 0.00 | 0.00 | 0.00 | 43 | 1016.5 |
| 20260506214539 | 21 | 26 | 6.4 | 17.7 | 0.00 | 0.00 | 0.00 | 44 | 1016.5 |
| 20260506214011 | 21 | 47 | 11.3 | 17.7 | 0.00 | 0.00 | 0.00 | 43 | 1016.6 |
| 20260506213527 | 22 | 43 | 3.2 | 16.1 | 0.00 | 0.00 | 0.00 | 44 | 1016.7 |
| 20260506213003 | 22 | 59 | 4.8 | 16.1 | 0.00 | 0.00 | 0.00 | 43 | 1016.8 |
| 20260506212541 | 21 | 59 | 4.8 | 19.3 | 0.00 | 0.00 | 0.00 | 43 | 1016.8 |
| 20260506212022 | 21 | 48 | 12.9 | 19.3 | 0.00 | 0.00 | 0.00 | 43 | 1016.9 |
| 20260506211540 | 21 | 41 | 3.2 | 17.7 | 0.00 | 0.00 | 0.00 | 43 | 1016.9 |
| 20260506211016 | 21 | 37 | 8.0 | 17.7 | 0.00 | 0.00 | 0.00 | 44 | 1016.8 |
| 20260506210536 | 21 | 51 | 9.7 | 17.7 | 0.00 | 0.00 | 0.00 | 43 | 1017.0 |
| 20260506210013 | 21 | 83 | 3.2 | 12.9 | 0.00 | 0.00 | 0.00 | 44 | 1016.9 |
| 20260506205545 | 21 | 36 | 4.8 | 11.3 | 0.00 | 0.00 | 0.00 | 44 | 1017.1 |
| 20260506205025 | 21 | 24 | 3.2 | 11.3 | 0.00 | 0.00 | 0.00 | 44 | 1017.1 |
| 20260506204558 | 21 | 51 | 4.8 | 12.9 | 0.00 | 0.00 | 0.00 | 45 | 1017.1 |
| 20260506204036 | 21 | 23 | 8.0 | 12.9 | 0.00 | 0.00 | 0.00 | 44 | 1017.2 |
| 20260506203513 | 21 | 39 | 4.8 | 12.9 | 0.00 | 0.00 | 0.00 | 46 | 1017.2 |
| 20260506203030 | 21 | 40 | 4.8 | 12.9 | 0.00 | 0.00 | 0.00 | 46 | 1017.3 |
| 20260506202507 | 20 | 40 | 4.8 | 12.9 | 0.00 | 0.00 | 0.00 | 46 | 1017.3 |
| 20260506202023 | 21 | 57 | 6.4 | 12.9 | 0.00 | 0.00 | 0.00 | 46 | 1017.4 |
| 20260506201559 | 21 | 45 | 1.6 | 9.7 | 0.00 | 0.00 | 0.00 | 46 | 1017.5 |
| 20260506201040 | 20 | 59 | 3.2 | 16.1 | 0.00 | 0.00 | 0.00 | 47 | 1017.5 |
| 20260506200556 | 20 | 35 | 6.4 | 16.1 | 0.00 | 0.00 | 0.00 | 47 | 1017.6 |
| 20260506200036 | 20 | 36 | 6.4 | 16.1 | 0.00 | 0.00 | 0.00 | 48 | 1017.6 |
| 20260506195517 | 20 | 45 | 6.4 | 16.1 | 0.00 | 0.00 | 0.00 | 47 | 1017.7 |
| 20260506195054 | 20 | 59 | 1.6 | 14.5 | 0.00 | 0.00 | 0.00 | 48 | 1017.8 |
| 20260506194514 | 20 | 24 | 3.2 | 14.5 | 0.00 | 0.00 | 0.00 | 47 | 1017.8 |
| 20260506194051 | 20 | 53 | 4.8 | 14.5 | 0.00 | 0.00 | 0.00 | 49 | 1017.9 |
| 20260506193532 | 20 | 54 | 4.8 | 17.7 | 0.00 | 0.00 | 0.00 | 48 | 1017.9 |
| 20260506193048 | 20 | 57 | 6.4 | 12.9 | 0.00 | 0.00 | 0.00 | 47 | 1017.9 |
| 20260506192527 | 20 | 349 | 1.6 | 11.3 | 0.00 | 0.00 | 0.00 | 48 | 1017.9 |
| 20260506192003 | 20 | 55 | 1.6 | 11.3 | 0.00 | 0.00 | 0.00 | 48 | 1018.1 |
| 20260506191526 | 20 | 47 | 1.6 | 8.0 | 0.00 | 0.00 | 0.00 | 49 | 1018.1 |
| 20260506191058 | 20 | 33 | 1.6 | 12.9 | 0.00 | 0.00 | 0.00 | 50 | 1018.2 |
| 20260506190538 | 19 | 2 | 4.8 | 12.9 | 0.00 | 0.00 | 0.00 | 50 | 1018.3 |
| 20260506190012 | 19 | 52 | 4.8 | 11.3 | 0.00 | 0.00 | 0.00 | 49 | 1018.3 |
| 20260506185547 | 19 | 16 | 3.2 | 11.3 | 0.00 | 0.00 | 0.00 | 51 | 1018.3 |
| 20260506185102 | 19 | 42 | 3.2 | 9.7 | 0.00 | 0.00 | 0.00 | 50 | 1018.3 |
| 20260506185001 | 19 | 344 | 1.6 | 9.7 | 0.00 | 0.00 | 0.00 | 50 | 1018.4 |
| 20260506184540 | 18 | 52 | 1.6 | 8.0 | 0.00 | 0.00 | 0.00 | 50 | 1018.5 |
| 20260506184024 | 18 | 54 | 1.6 | 8.0 | 0.00 | 0.00 | 0.00 | 51 | 1018.5 |
| 20260506183554 | 18 | 23 | 4.8 | 9.7 | 0.00 | 0.00 | 0.00 | 50 | 1018.6 |
| 20260506183040 | 18 | 90 | 3.2 | 11.3 | 0.00 | 0.00 | 0.00 | 52 | 1018.6 |
| 20260506182547 | 18 | 14 | 1.6 | 8.0 | 0.00 | 0.00 | 0.00 | 51 | 1018.7 |
| 20260506182023 | 18 | 241 | 0.0 | 9.7 | 0.00 | 0.00 | 0.00 | 51 | 1018.7 |
| 20260506181552 | 18 | 19 | 3.2 | 9.7 | 0.00 | 0.00 | 0.00 | 52 | 1018.8 |
| 20260506181028 | 18 | 124 | 0.0 | 6.4 | 0.00 | 0.00 | 0.00 | 53 | 1018.9 |
| 20260506180503 | 17 | 68 | 0.0 | 9.7 | 0.00 | 0.00 | 0.00 | 53 | 1018.9 |
| 20260506180023 | 17 | 14 | 4.8 | 9.7 | 0.00 | 0.00 | 0.00 | 55 | 1018.9 |
| 20260506175559 | 18 | 323 | 0.0 | 6.4 | 0.00 | 0.00 | 0.00 | 53 | 1018.9 |
| 20260506175503 | 18 | 323 | 1.6 | 6.4 | 0.00 | 0.00 | 0.00 | 53 | 1018.8 |
| 20260506175040 | 17 | 348 | 1.6 | 8.0 | 0.00 | 0.00 | 0.00 | 54 | 1018.9 |
| 20260506174559 | 17 | 213 | 3.2 | 8.0 | 0.00 | 0.00 | 0.00 | 55 | 1018.8 |
| 20260506174035 | 17 | 47 | 4.8 | 8.0 | 0.00 | 0.00 | 0.00 | 54 | 1018.8 |
| 20260506173511 | 17 | 201 | 0.0 | 3.2 | 0.00 | 0.00 | 0.00 | 55 | 1018.8 |
| 20260506173032 | 17 | 201 | 0.0 | 6.4 | 0.00 | 0.00 | 0.00 | 57 | 1018.8 |
| 20260506172513 | 16 | 352 | 1.6 | 8.0 | 0.00 | 0.00 | 0.00 | 56 | 1018.9 |
| 20260506172045 | 16 | 34 | 3.2 | 9.7 | 0.00 | 0.00 | 0.00 | 58 | 1018.9 |
| 20260506171601 | 16 | 68 | 1.6 | 9.7 | 0.00 | 0.00 | 0.00 | 58 | 1018.9 |
| 20260506171503 | 16 | 350 | 1.6 | 9.7 | 0.00 | 0.00 | 0.00 | 59 | 1018.9 |
| 20260506171040 | 16 | 267 | 3.2 | 9.7 | 0.00 | 0.00 | 0.00 | 58 | 1019.0 |
| 20260506170517 | 15 | 42 | 3.2 | 11.3 | 0.00 | 0.00 | 0.00 | 59 | 1019.0 |
| 20260506170044 | 16 | 42 | 4.8 | 11.3 | 0.00 | 0.00 | 0.00 | 58 | 1019.0 |
| 20260506165513 | 16 | 41 | 0.0 | 11.3 | 0.00 | 0.00 | 0.00 | 58 | 1019.0 |
| 20260506165031 | 16 | 39 | 1.6 | 11.3 | 0.00 | 0.00 | 0.00 | 58 | 1019.0 |
| 20260506164512 | 16 | 45 | 1.6 | 6.4 | 0.00 | 0.00 | 0.00 | 58 | 1018.9 |
| 20260506164045 | 16 | 33 | 0.0 | 6.4 | 0.00 | 0.00 | 0.00 | 59 | 1019.0 |
| 20260506163527 | 16 | 209 | 1.6 | 6.4 | 0.00 | 0.00 | 0.00 | 59 | 1019.0 |
| 20260506163051 | 16 | 270 | 0.0 | 6.4 | 0.00 | 0.00 | 0.00 | 58 | 1018.9 |
| 20260506162527 | 16 | 227 | 1.6 | 6.4 | 0.00 | 0.00 | 0.00 | 59 | 1019.0 |
| 20260506162101 | 16 | 222 | 0.0 | 4.8 | 0.00 | 0.00 | 0.00 | 60 | 1018.9 |
| 20260506161522 | 15 | 222 | 0.0 | 4.8 | 0.00 | 0.00 | 0.00 | 60 | 1018.9 |
| 20260506161053 | 15 | 220 | 0.0 | 4.8 | 0.00 | 0.00 | 0.00 | 60 | 1018.9 |
| 20260506160534 | 15 | 218 | 0.0 | 3.2 | 0.00 | 0.00 | 0.00 | 63 | 1018.9 |
| 20260506160018 | 14 | 218 | 0.0 | 3.2 | 0.00 | 0.00 | 0.00 | 64 | 1018.9 |
| 20260506155545 | 14 | 218 | 0.0 | 1.6 | 0.00 | 0.00 | 0.00 | 64 | 1018.9 |
| 20260506155059 | 14 | 218 | 0.0 | 3.2 | 0.00 | 0.00 | 0.00 | 65 | 1018.9 |
| 20260506155002 | 14 | 218 | 0.0 | 3.2 | 0.00 | 0.00 | 0.00 | 65 | 1018.9 |
| 20260506154540 | 14 | 218 | 0.0 | 3.2 | 0.00 | 0.00 | 0.00 | 66 | 1018.9 |
| 20260506154015 | 13 | 218 | 0.0 | 4.8 | 0.00 | 0.00 | 0.00 | 67 | 1018.9 |
| 20260506153551 | 13 | 218 | 1.6 | 4.8 | 0.00 | 0.00 | 0.00 | 67 | 1018.9 |
| 20260506153033 | 13 | 218 | 0.0 | 3.2 | 0.00 | 0.00 | 0.00 | 67 | 1018.8 |
| 20260506152549 | 13 | 218 | 0.0 | 4.8 | 0.00 | 0.00 | 0.00 | 68 | 1018.8 |
| 20260506152032 | 13 | 215 | 0.0 | 4.8 | 0.00 | 0.00 | 0.00 | 70 | 1018.8 |
| 20260506151601 | 13 | 215 | 0.0 | 3.2 | 0.00 | 0.00 | 0.00 | 70 | 1018.7 |
| 20260506151025 | 13 | 215 | 0.0 | 3.2 | 0.00 | 0.00 | 0.00 | 71 | 1018.8 |
| 20260506150600 | 12 | 215 | 0.0 | 3.2 | 0.00 | 0.00 | 0.00 | 72 | 1018.9 |
| 20260506150501 | 12 | 215 | 0.0 | 3.2 | 0.00 | 0.00 | 0.00 | 73 | 1018.9 |
| 20260506150038 | 12 | 214 | 0.0 | 4.8 | 0.00 | 0.00 | 0.00 | 73 | 1018.9 |
| 20260506145551 | 12 | 213 | 1.6 | 4.8 | 0.00 | 0.00 | 0.00 | 74 | 1018.9 |
| 20260506145034 | 12 | 227 | 1.6 | 4.8 | 0.00 | 0.00 | 0.00 | 74 | 1018.9 |
| 20260506144512 | 12 | 156 | 0.0 | 3.2 | 0.00 | 0.00 | 0.00 | 74 | 1018.9 |
| 20260506144038 | 11 | 156 | 0.0 | 3.2 | 0.00 | 0.00 | 0.00 | 75 | 1018.9 |
| 20260506143510 | 11 | 156 | 0.0 | 3.2 | 0.00 | 0.00 | 0.00 | 75 | 1018.9 |
| 20260506143051 | 11 | 156 | 0.0 | 3.2 | 0.00 | 0.00 | 0.00 | 75 | 1018.9 |
| 20260506142503 | 11 | 156 | 0.0 | 4.8 | 0.00 | 0.00 | 0.00 | 76 | 1018.8 |
| 20260506142041 | 11 | 156 | 0.0 | 3.2 | 0.00 | 0.00 | 0.00 | 76 | 1018.9 |
| 20260506141519 | 11 | 156 | 0.0 | 3.2 | 0.00 | 0.00 | 0.00 | 78 | 1018.9 |
| 20260506141039 | 11 | 156 | 0.0 | 3.2 | 0.00 | 0.00 | 0.00 | 77 | 1018.8 |
| 20260506140519 | 11 | 156 | 0.0 | 3.2 | 0.00 | 0.00 | 0.00 | 79 | 1018.8 |
| 20260506140104 | 10 | 156 | 0.0 | 3.2 | 0.00 | 0.00 | 0.00 | 80 | 1018.6 |
| 20260506135513 | 10 | 156 | 0.0 | 3.2 | 0.00 | 0.00 | 0.00 | 80 | 1018.7 |
| 20260506135049 | 10 | 156 | 0.0 | 1.6 | 0.00 | 0.00 | 0.00 | 81 | 1018.6 |
| 20260506134505 | 10 | 156 | 0.0 | 1.6 | 0.00 | 0.00 | 0.00 | 83 | 1018.6 |
| 20260506134043 | 10 | 156 | 0.0 | 1.6 | 0.00 | 0.00 | 0.00 | 83 | 1018.6 |
| 20260506133557 | 9 | 156 | 0.0 | 1.6 | 0.00 | 0.00 | 0.00 | 84 | 1018.5 |
| 20260506133040 | 9 | 283 | 0.0 | 1.6 | 0.00 | 0.00 | 0.00 | 85 | 1018.4 |
| 20260506132551 | 8 | 283 | 0.0 | 0.0 | 0.00 | 0.00 | 0.00 | 85 | 1018.3 |
| 20260506132031 | 8 | 283 | 0.0 | 0.0 | 0.00 | 0.00 | 0.00 | 85 | 1018.3 |
| 20260506131515 | 8 | 283 | 0.0 | 0.0 | 0.00 | 0.00 | 0.00 | 85 | 1018.1 |
| 20260506131032 | 8 | 283 | 0.0 | 0.0 | 0.00 | 0.00 | 0.00 | 85 | 1018.1 |
| 20260506130507 | 7 | 283 | 0.0 | 0.0 | 0.00 | 0.00 | 0.00 | 85 | 1018.1 |
| 20260506130028 | 7 | 283 | 0.0 | 0.0 | 0.00 | 0.00 | 0.00 | 85 | 1018.1 |
| 20260506125505 | 7 | 283 | 0.0 | 0.0 | 0.00 | 0.38 | 0.00 | 85 | 1018.1 |
| 20260506125025 | 7 | 283 | 0.0 | 0.0 | 0.00 | 0.38 | 0.00 | 85 | 1018.0 |
| 20260506124557 | 7 | 283 | 0.0 | 0.0 | 0.00 | 0.38 | 0.00 | 85 | 1018.0 |
| 20260506124017 | 7 | 283 | 0.0 | 0.0 | 0.00 | 0.38 | 0.00 | 85 | 1017.9 |
| 20260506123556 | 7 | 283 | 0.0 | 0.0 | 0.00 | 0.38 | 0.00 | 85 | 1017.9 |
| 20260506123036 | 7 | 283 | 0.0 | 0.0 | 0.00 | 0.38 | 0.00 | 85 | 1017.8 |
| 20260506122553 | 7 | 283 | 0.0 | 0.0 | 0.00 | 0.38 | 0.00 | 85 | 1017.8 |
| 20260506122033 | 7 | 282 | 0.0 | 0.0 | 0.00 | 0.38 | 0.00 | 84 | 1017.8 |
| 20260506121507 | 7 | 283 | 0.0 | 0.0 | 0.00 | 0.38 | 0.00 | 84 | 1017.8 |
| 20260506121029 | 7 | 283 | 0.0 | 0.0 | 0.00 | 0.38 | 0.00 | 84 | 1017.8 |
| 20260506120515 | 7 | 283 | 0.0 | 0.0 | 0.00 | 0.38 | 0.00 | 84 | 1017.8 |
| 20260506120032 | 7 | 283 | 0.0 | 1.6 | 0.00 | 0.38 | 0.00 | 84 | 1017.8 |
| 20260506115506 | 7 | 283 | 0.0 | 1.6 | 0.00 | 0.38 | 0.00 | 84 | 1017.8 |
| 20260506115043 | 7 | 283 | 0.0 | 0.0 | 0.00 | 0.38 | 0.00 | 84 | 1017.8 |
| 20260506114559 | 7 | 283 | 0.0 | 0.0 | 0.00 | 0.38 | 0.00 | 83 | 1017.8 |
| 20260506114501 | 7 | 283 | 0.0 | 0.0 | 0.00 | 0.38 | 0.00 | 83 | 1017.8 |
| 20260506114038 | 7 | 283 | 0.0 | 0.0 | 0.00 | 0.38 | 0.00 | 83 | 1017.8 |
| 20260506113515 | 8 | 283 | 0.0 | 0.0 | 0.00 | 0.38 | 0.00 | 83 | 1017.8 |
| 20260506113047 | 8 | 283 | 0.0 | 0.0 | 0.00 | 0.38 | 0.00 | 83 | 1017.8 |
| 20260506112511 | 8 | 283 | 0.0 | 0.0 | 0.00 | 0.38 | 0.00 | 83 | 1017.7 |
| 20260506112045 | 8 | 283 | 0.0 | 0.0 | 0.00 | 0.38 | 0.00 | 83 | 1017.7 |
| 20260506111521 | 8 | 283 | 0.0 | 0.0 | 0.00 | 0.38 | 0.00 | 83 | 1017.7 |
| 20260506111041 | 8 | 283 | 0.0 | 0.0 | 0.00 | 0.38 | 0.00 | 82 | 1017.7 |
| 20260506110524 | 8 | 283 | 0.0 | 0.0 | 0.00 | 0.38 | 0.00 | 82 | 1017.7 |
| 20260506110103 | 8 | 283 | 0.0 | 0.0 | 0.00 | 0.38 | 0.00 | 82 | 1017.6 |
| 20260506110002 | 8 | 283 | 0.0 | 0.0 | 0.00 | 0.38 | 0.00 | 82 | 1017.5 |
| 20260506105521 | 8 | 283 | 0.0 | 0.0 | 0.00 | 0.48 | 0.00 | 82 | 1017.6 |
| 20260506105056 | 8 | 283 | 0.0 | 0.0 | 0.00 | 0.48 | 0.00 | 82 | 1017.6 |
| 20260506104517 | 8 | 283 | 0.0 | 1.6 | 0.00 | 0.48 | 0.00 | 82 | 1017.6 |
| 20260506104049 | 8 | 283 | 0.0 | 1.6 | 0.00 | 0.48 | 0.00 | 82 | 1017.6 |
| 20260506103529 | 8 | 283 | 0.0 | 0.0 | 0.00 | 0.48 | 0.00 | 82 | 1017.6 |
| 20260506103013 | 8 | 283 | 0.0 | 0.0 | 0.00 | 0.48 | 0.00 | 82 | 1017.6 |
| 20260506102525 | 8 | 283 | 0.0 | 0.0 | 0.00 | 0.48 | 0.00 | 82 | 1017.6 |
| 20260506102059 | 8 | 283 | 0.0 | 0.0 | 0.00 | 0.48 | 0.00 | 82 | 1017.7 |
| 20260506102002 | 8 | 283 | 0.0 | 0.0 | 0.00 | 0.48 | 0.00 | 82 | 1017.7 |
| 20260506101542 | 8 | 283 | 0.0 | 0.0 | 0.00 | 0.48 | 0.00 | 82 | 1017.6 |
| 20260506101055 | 8 | 283 | 0.0 | 0.0 | 0.00 | 0.48 | 0.00 | 82 | 1017.6 |
| 20260506100518 | 9 | 283 | 0.0 | 0.0 | 0.00 | 0.48 | 0.00 | 82 | 1017.6 |
| 20260506100049 | 8 | 283 | 0.0 | 0.0 | 0.00 | 0.48 | 0.00 | 82 | 1017.6 |
| 20260506095536 | 8 | 283 | 0.0 | 0.0 | 0.00 | 0.48 | 0.00 | 81 | 1017.6 |
| 20260506095051 | 8 | 283 | 0.0 | 0.0 | 0.00 | 0.48 | 0.00 | 81 | 1017.6 |
| 20260506094529 | 8 | 283 | 0.0 | 0.0 | 0.00 | 0.48 | 0.00 | 80 | 1017.6 |
| 20260506094007 | 8 | 283 | 0.0 | 0.0 | 0.00 | 0.48 | 0.00 | 80 | 1017.6 |
| 20260506093527 | 9 | 283 | 0.0 | 0.0 | 0.00 | 0.48 | 0.00 | 80 | 1017.7 |
| 20260506093004 | 9 | 283 | 0.0 | 0.0 | 0.00 | 0.48 | 0.00 | 80 | 1017.7 |
| 20260506092523 | 9 | 283 | 0.0 | 0.0 | 0.00 | 0.48 | 0.00 | 80 | 1017.6 |
| 20260506092057 | 9 | 283 | 0.0 | 0.0 | 0.00 | 0.48 | 0.00 | 79 | 1017.7 |
| 20260506091538 | 9 | 283 | 0.0 | 0.0 | 0.00 | 0.48 | 0.00 | 79 | 1017.7 |
| 20260506091055 | 10 | 283 | 0.0 | 1.6 | 0.00 | 0.48 | 0.00 | 79 | 1017.7 |
| 20260506090536 | 10 | 283 | 0.0 | 1.6 | 0.00 | 0.48 | 0.00 | 79 | 1017.8 |
| 20260506090011 | 10 | 282 | 0.0 | 3.2 | 0.00 | 0.48 | 0.00 | 79 | 1017.9 |
| 20260506085530 | 10 | 283 | 0.0 | 3.2 | 0.00 | 0.48 | 0.00 | 79 | 1017.9 |
| 20260506085014 | 10 | 44 | 0.0 | 1.6 | 0.00 | 0.48 | 0.00 | 79 | 1017.9 |
| 20260506084548 | 10 | 45 | 0.0 | 1.6 | 0.00 | 0.48 | 0.00 | 79 | 1018.0 |
| 20260506084021 | 10 | 45 | 0.0 | 1.6 | 0.00 | 0.48 | 0.00 | 79 | 1018.0 |
| 20260506083541 | 10 | 45 | 0.0 | 1.6 | 0.00 | 0.48 | 0.00 | 78 | 1017.9 |
| 20260506083013 | 10 | 45 | 0.0 | 0.0 | 0.00 | 0.48 | 0.00 | 78 | 1018.0 |
| 20260506082532 | 10 | 45 | 0.0 | 0.0 | 0.00 | 0.48 | 0.00 | 77 | 1018.0 |
| 20260506082018 | 10 | 45 | 0.0 | 0.0 | 0.00 | 0.48 | 0.00 | 77 | 1018.0 |
| 20260506081547 | 10 | 45 | 0.0 | 1.6 | 0.00 | 0.48 | 0.00 | 77 | 1018.0 |
| 20260506081009 | 10 | 45 | 0.0 | 1.6 | 0.00 | 0.48 | 0.00 | 76 | 1018.0 |
| 20260506080544 | 10 | 45 | 0.0 | 1.6 | 0.00 | 0.48 | 0.00 | 75 | 1018.0 |